Weather in Shumilino

Belarus     55°17′56″N   29°37′01″E
temp.,
°C
wind,
m/s
gust,
m/s
humid.,
%
clouds,
%
prec.,
mm/h
press.,
hPa
HPBL,
m
20 june, sun
sun2000:00+18se35930 0.0 102178
03:00+17s34955 0.0 102169
06:00+19sse25910 0.0 1021116
09:00+24s34750 0.0 1021440
12:00+27sse34610 0.0 10201238
15:00+29s445611 0.0 10201654
18:00+28s34625 0.0 10181138
21:00+23sse34825 0.0 101857
21 june, mon
mon2100:00+20sse239169 0.0 101837
03:00+18sse23934 0.5 101838
06:00+19se239198 0.0 101866
09:00+24se477427 0.0 1018528
12:00+27se565599 0.0 1017954
15:00+29e464814 0.0 10171203
18:00+28ese476086 0.0 1016882
21:00+23ese4108084 0.0 1015219
22 june, tue
tue2200:00+20ese41189100 0.0 1016249
03:00+19se3119271 0.0 1016268
06:00+20se410925 0.0 1016304
09:00+24sse587672 0.0 1016591
12:00+27sse686572 0.0 10161304
15:00+29sse685976 0.4 10161557
18:00+28sse476493 0.4 10161105
21:00+24se38826 0.4 1016174
23 june, wed
wed2300:00+21sse410882 0.0 1017170
03:00+19sse38930 0.0 1018136
06:00+19se36890 0.0 1018129
09:00+25sse46715 0.0 1019491
12:00+28sse57584 0.0 10191082
15:00+30s57540 0.0 10191599
18:00+30sse45605 0.0 10181275
21:00+25se38800 0.1 1018182
24 june, thu
thu2400:00+22sse35870 0.0 101976
03:00+21sse35933 0.0 101996
06:00+21sse369319 0.0 1019154
09:00+26s45725 0.0 1018497
12:00+30s46555 0.0 10181123
15:00+31s56465 0.0 10181538
18:00+30sse45565 0.0 1017956
21:00+20sw413814 1.3 1017242